User: anonymous
Location: Coleman
(45.0650°N, 88.0340°W)
Time: 05:33:32
(UTC-05:00)
Language:

Iridium 97 - Orbit

View from above orbital plane
View from above orbital plane
View from above satellite
View from above satellite

Ground track
Ground track

The orbit data is extracted from the following two-line orbital elements,

1 27450U 02031A   14205.26473879 -.00000021  00000-0 -14668-4 0  2944
2 27450 086.3935 041.5404 0003309 105.9720 254.1840 14.34215532638451
Epoch (UTC): 24 July 2014 06:21:13
Eccentricity: 0.0003309
inclination: 86.3935°
perigee height: 775 km
apogee height: 780 km
right ascension of ascending node: 41.5404°
argument of perigee: 105.9720°
revolutions per day: 14.34215532
mean anomaly at epoch: 254.1840°
orbit number at epoch: 63845

The dashed part of the orbit path shows where the satellite is in the earth's shadow,  

DLR